Location: NJAA Observatory
(40.6819°N, 74.8979°W)
Time: 06:41:25
(UTC-04:00)

Daily predictions for brighter satellites

Satellite Brightness Start Highest point End
(mag) Time Altitude Azimuth Time Altitude Azimuth Time Altitude Azimuth
Cosmos 1891 Rocket 4.5 20:50:32 10° N 20:56:39 74° E 21:02:39 10° SSE
COSMOS 2455 2.9 20:51:59 10° SSW 20:57:53 63° ESE 21:03:50 10° NE
SeaSat 1 3.8 20:56:42 10° ESE 21:00:46 26° NE 21:04:51 10° N
ALOS 3.2 21:03:28 10° S 21:07:58 49° W 21:12:31 10° NNW
Cosmos 2369 Rocket 2.8 21:07:03 10° N 21:12:26 42° ENE 21:17:25 11° SE
ISS -2.3 21:11:51 10° WSW 21:15:02 50° NNW 21:18:14 10° NE
CZ-4B R/B 4.5 21:10:51 10° NE 21:15:14 28° E 21:19:41 10° SSE
Cosmos 1666 3.8 21:12:55 10° NNW 21:16:41 46° W 21:20:24 10° SSW
Cosmos 1602 Rocket 3.8 21:13:41 10° SSW 21:18:09 74° W 21:22:37 10° N
ATLAS 3B R/B 3.1 21:12:21 10° S 21:19:43 52° ESE 21:26:59 10° NE
USA 186 4.0 21:17:42 10° SW 21:19:44 19° W 21:21:41 10° NW
Cosmos 1825 Rocket 4.2 21:17:52 10° SSE 21:21:57 37° E 21:26:02 10° NNE
H-2A R/B 4.0 21:25:09 10° E 21:27:28 13° ENE 21:29:48 10° NNE
Cosmos 1812 Rocket 3.6 21:25:09 10° N 21:29:35 84° W 21:34:00 10° S
Tsikada Rocket 4.2 21:23:58 10° S 21:30:22 82° W 21:36:47 10° N
PSLV R/B 3.4 21:28:21 10° W 21:31:53 83° N 21:35:26 10° E
YAOGAN 6 3.7 21:32:00 17° SE 21:34:16 32° ENE 21:37:37 10° N
UNK 4.4 21:30:09 10° NNE 21:35:34 55° ESE 21:41:14 10° S
CZ-2C R/B 3.1 21:34:25 10° SW 21:36:05 18° W 21:37:45 10° NW
SPOT 1/Viking Rocket 4.2 21:32:17 15° SE 21:36:05 39° ENE 21:40:52 10° N
SPOT 5 2.6 21:32:24 13° SSE 21:36:14 71° ENE 21:40:32 10° N
Terra 3.9 21:35:57 10° E 21:38:26 14° ENE 21:40:55 10° NNE
USA 234 4.0 21:34:41 10° ESE 21:40:51 46° NNE 21:47:03 10° NW
H-2A R/B 2.9 21:37:15 10° S 21:41:22 47° W 21:45:38 10° NNW
Lacrosse 4 Rocket 1.3 21:38:43 10° SSW 21:42:42 63° ESE 21:46:45 10° NE
CZ-4 SHROUD 3.2 21:40:46 17° S 21:43:07 82° WSW 21:46:17 10° NNW
ERS-1 Rocket 4.0 21:39:00 10° S 21:43:45 42° W 21:48:31 10° NNW
Cosmos 2263 4.5 21:40:05 10° NNW 21:45:37 56° ENE 21:49:30 20° SE
GEOS 3 Rocket 4.4 21:42:38 12° SSE 21:47:21 45° WSW 21:52:21 10° NW
Cosmos 1515 3.9 21:44:24 10° SSW 21:48:14 72° W 21:52:06 10° N
PSLV R/B 3.4 21:47:37 18° S 21:49:44 69° W 21:52:51 10° NNW
COSMOS 2406 4.3 21:51:43 20° SE 21:53:45 25° ESE 21:58:17 10° NE
Cosmos 2142 Rocket 4.5 21:48:04 10° N 21:54:21 74° E 21:59:14 17° SSE
Cosmos 1066 Rocket 4.2 21:49:16 10° S 21:54:57 81° E 22:00:48 10° NNE
MetOp-A 4.1 21:52:37 17° SSE 21:56:50 87° ENE 22:02:14 10° NNW
Atlas Centaur 2 3.5 21:51:57 10° WSW 21:58:33 38° S 22:03:24 20° SE
Envisat 3.5 21:54:15 11° S 21:59:00 59° W 22:04:03 10° NNW
Cosmos 1634 Rocket 4.0 21:56:09 10° N 22:02:22 88° ENE 22:07:18 17° S
Cosmos 407 Rocket 3.4 21:57:26 10° SSW 22:02:42 80° ESE 22:07:56 10° NNE
USA 245 4.1 21:58:44 20° SSE 22:02:45 72° ENE 22:07:37 10° N
CZ-4C R/B 4.2 22:02:51 26° ESE 22:04:29 36° ENE 22:08:10 10° N
USA 238 DEB 4.1 21:58:05 10° S 22:04:40 42° ESE 22:11:14 10° NE
USA 238 4.1 21:58:12 10° S 22:04:46 42° ESE 22:11:19 10° NE
Meteor 1-22 Rocket 4.2 22:00:08 10° N 22:05:48 79° E 22:09:45 22° SSE
Cosmos 1943 Rocket 2.7 22:00:35 10° NNW 22:05:54 44° ENE 22:08:55 24° ESE
Cosmos 1900 4.4 22:03:06 10° SSW 22:08:15 89° WNW 22:13:26 10° NNE
Cosmos 1953 Rocket 3.5 22:06:21 16° S 22:09:54 87° W 22:14:23 10° N
Cosmos 489 Rocket 4.5 22:04:15 10° SSW 22:10:35 85° ESE 22:16:59 10° NNE
SL-27 R/B 2.9 22:11:35 36° ESE 22:11:35 36° ESE 22:14:40 10° NE
Cosmos 1943 3.8 22:07:34 10° SW 22:13:08 58° WNW 22:18:47 10° NNE
Cosmos-2242 3.7 22:09:09 10° N 22:13:18 39° ENE 22:14:41 30° ESE
Cosmos 1953 3.1 22:16:06 10° N 22:19:46 35° ENE 22:20:32 32° ESE
Cosmos 1607 4.4 22:17:40 25° SSE 22:20:31 38° ESE 22:26:11 10° NE
SL-08 RB Rocket 3.7 22:19:22 33° SSE 22:21:19 70° ENE 22:25:50 10° N
Cosmos 2279 Rocket 4.0 22:15:54 10° N 22:22:10 74° E 22:25:44 27° SSE
Cosmos 1954 Rocket 3.9 22:19:49 19° S 22:23:40 71° ESE 22:28:57 10° NNE
Cosmos 1932 4.3 22:19:11 10° SSW 22:25:19 71° ESE 22:31:31 10° NE
Cosmos 1346 Rocket 3.8 22:27:05 13° SSW 22:30:19 44° WNW 22:34:06 10° N
CZ-4C R/B 3.8 22:32:02 17° E 22:32:02 17° E 22:34:32 10° ENE
Cosmos 1842 3.1 22:35:17 45° S 22:36:25 88° E 22:40:21 10° N
SeaSat 1 3.2 22:35:39 25° SSW 22:38:04 43° WSW 22:42:48 10° NW
ARGOS 3.3 22:36:49 29° S 22:39:39 69° WSW 22:45:05 10° NNW
SL-23 DEB 4.5 22:38:03 10° WSW 22:44:13 70° NW 22:47:57 10° NE
CARTOSAT-1 3.6 22:45:04 51° SE 22:45:57 65° ENE 22:50:15 10° N
Cosmos 1741 Rocket 4.1 22:45:25 42° SSE 22:46:49 54° ESE 22:51:59 10° NNE
Geosat 3.9 22:46:19 10° NNE 22:51:22 75° ESE 22:53:29 35° SSW
ISS -0.1 22:50:04 10° NW 22:52:04 15° NNW 22:54:04 10° NNE
Cosmos 2369 Rocket 3.7 22:51:32 10° NW 22:56:12 27° WSW 22:59:14 17° SW
Landsat 7 4.0 22:58:24 44° SSW 22:59:48 66° WSW 23:04:33 10° NNW
Cosmos 1850 Rocket 3.9 23:01:16 45° S 23:02:53 80° ESE 23:08:08 10° NNE
H-2A R/B 2.0 23:04:51 50° S 23:06:10 77° WSW 23:11:16 10° NNW
Cosmos 1570 Rocket 4.0 23:01:29 10° NNW 23:06:52 87° WSW 23:08:12 53° SSE
Meteor 2-5 Rocket 4.1 23:06:10 42° ESE 23:07:11 47° E 23:12:42 10° NNE
Cosmos 1758 3.6 23:03:42 10° NNW 23:07:46 61° W 23:08:15 56° SW
Cosmos 1140 Rocket 3.7 23:07:17 29° SW 23:09:57 69° WNW 23:15:12 10° NNE
ATLAS 3B R/B 4.2 23:03:31 10° WSW 23:10:41 41° NW 23:17:40 10° NNE
Spot 4 3.7 23:11:57 62° S 23:12:46 87° WSW 23:17:35 10° NNW
IGS 5A 3.4 23:12:42 69° SW 23:13:01 72° W 23:17:11 10° NNW
Cosmos 1842 Rocket 3.4 23:10:35 10° N 23:15:00 85° W 23:15:21 75° SSW
Terra 2.0 23:14:42 53° SSW 23:15:37 65° WSW 23:20:22 10° NNW
Cosmos 1340 3.4 23:17:42 45° NE 23:17:42 45° NE 23:20:36 10° NNE
NOSS 3-2 (A) 3.5 23:20:31 50° SSE 23:21:24 54° ESE 23:27:46 10° NE
Lacrosse 4 Rocket 4.4 23:19:45 10° WNW 23:21:51 14° NW 23:23:59 10° NNW
USA 234 3.4 23:21:49 44° S 23:23:43 58° SW 23:30:12 10° NW
Cosmos 1544 3.4 23:20:39 10° N 23:23:55 65° NNW 23:23:55 65° NNW
Cosmos 2084 4.2 23:20:53 10° NW 23:24:37 40° WSW 23:24:37 40° WSW
Cosmos 1470 3.0 23:24:34 10° N 23:27:56 63° NNE 23:27:56 63° NNE
Cosmos 1092 Rocket 4.0 23:27:08 45° SSW 23:29:16 85° W 23:35:35 10° N
Cosmos 1805 4.3 23:26:13 10° NNW 23:29:51 36° W 23:29:59 36° W
Lacrosse 5 4.2 23:28:21 10° NNW 23:31:58 19° NNE 23:35:34 10° ENE
Cosmos 614 Rocket 4.1 23:30:46 46° SW 23:32:14 69° WNW 23:37:28 10° NNE
COSMOS 2406 4.1 23:33:42 18° SW 23:37:44 47° WNW 23:43:16 10° NNE
Cosmos 1076 Rocket 4.5 23:44:25 37° ENE 23:44:25 37° ENE 23:47:31 10° NNE
Atlas Centaur 2 4.0 23:41:01 10° WSW 23:46:02 27° SW 23:46:02 27° SW
Cosmos 2221 2.8 23:43:52 10° N 23:47:39 62° NNE 23:47:39 62° NNE
Cosmos 1766 Rocket 4.4 23:49:03 42° ENE 23:49:03 42° ENE 23:52:36 10° NNE
Cosmos 2082 Rocket 3.6 23:49:20 24° E 23:49:20 24° E 23:52:54 10° NE
Cosmos 1943 Rocket 3.6 23:44:55 10° NW 23:49:20 25° WSW 23:50:27 23° WSW
S3M 4.3 23:44:03 10° N 23:50:03 49° ENE 23:51:06 45° ESE
SL-8 R/B 3.8 23:45:20 10° WNW 23:49:39 67° W 23:49:39 67° W
Cosmos 1833 Rocket 4.4 23:52:22 19° E 23:52:22 19° E 23:55:17 10° NE
COSMOS 2487 4.0 23:54:06 34° NW 23:54:06 34° NW 23:57:05 10° N
